Content
SEND FEEDBACK

Daily
Averages
Monthly
Summary
Brazil

SALVADOR, BAHIA


Home > South America > Brazil > Bahia
Elevation: 20 feet     Latitude: 12 54S     Longitude: 038 20W

WEATHER
 
SELECT A DAY
Number of Records: 192,631;   Date Range: 6/30/96 - 9/30/14
 
SHARE

PRINT THIS DATA

[ ← Previous Day ]
WEATHER ALMANAC - JANUARY 31, 2013
[ Next Day → ]
[ °C ]   °F
Weather ElementAverageHighLow
Temperature82.2 °F87.8 °F (10:00 am)77 °F (3:00 am)
Dewpoint71.1 °F73.4 °F (7:00 am)66.2 °F (10:00 am)
Humidity68 %83 % (3:00 am)46 % (9:00 am)
Barometer29.90 in29.96 in (9:00 am)29.83 in (5:00 pm)
Wind Speed11.8 mph18.4 mph (2:00 pm)
Weather ElementAverage
Visibility7.5 mi
Wind DirectionENE (58.4 °)

Weather ElementTotal
Precipitation---
Cooling Degree Days17.4 (Base 65)
Growing Degree Days32.4 (Base 50)
Averaged from 31 records on January 31, 2013
WEATHER CONDITIONS BREAKOUT
WIND DIRECTION BREAKOUT
WEATHER BY HOUR - JANUARY 31, 2013
[ °C ]   °F
Local TimeTemperatureDewpointHumidityBarometerVisibilityWind DirectionWind SpeedGust SpeedPrecipitationEventsConditions
12:00 AM80.6 °F71.6 °F74 %29.92 in6.2 miNE (50°)8.1 mphScattered Clouds
1:00 AM78.8 °F71.6 °F78 %29.92 in6.2 miENE (60°)8.1 mphScattered Clouds
2:00 AM78.8 °F71.6 °F78 %29.89 in6.2 miENE (70°)8.1 mphScattered Clouds
3:00 AM78.0 °F71.0 °F75 %29.90 in12.0 miNorth (10°)2.3 mphPartly Cloudy
3:00 AM77.0 °F71.6 °F83 %29.89 in6.2 miNorth (10°)2.3 mphScattered Clouds
4:00 AM77.0 °F71.6 °F83 %29.89 in6.2 miNorth (10°)2.3 mphScattered Clouds
5:00 AM77.0 °F71.6 °F83 %29.89 in6.2 miNorth (10°)3.5 mphScattered Clouds
6:00 AM77.0 °F71.6 °F83 %29.92 in6.2 miNNE (20°)3.5 mphScattered Clouds
6:00 AM77.0 °F72.0 °F80 %29.92 in12.0 miNNE (20°)3.5 mphPartly Cloudy
7:00 AM80.6 °F73.4 °F79 %29.92 in6.2 miNorth (10°)6.9 mphScattered Clouds
8:00 AM82.4 °F71.6 °F70 %29.95 in6.2 miNorth (10°)8.1 mphScattered Clouds
9:00 AM87.0 °F69.0 °F46 %29.96 in12.0 miENE (70°)12.7 mphPartly Cloudy
9:00 AM86.0 °F69.8 °F58 %29.95 in6.2 miENE (70°)12.7 mphScattered Clouds
10:00 AM87.8 °F66.2 °F49 %29.95 in6.2 miEast (80°)15.0 mphScattered Clouds
11:00 AM87.8 °F69.8 °F55 %29.92 in6.2 miENE (70°)16.1 mphScattered Clouds
12:00 PM87.8 °F71.6 °F58 %29.92 in6.2 miEast (100°)15.0 mphPartly Cloudy
12:00 PM87.0 °F72.0 °F51 %29.92 in12.0 miEast (100°)15.0 mphScattered Clouds
1:00 PM86.0 °F71.6 °F62 %29.89 in6.2 miENE (70°)17.3 mphPartly Cloudy
2:00 PM86.0 °F71.6 °F62 %29.86 in6.2 miEast (100°)18.4 mphScattered Clouds
3:00 PM85.0 °F71.0 °F55 %29.86 in12.0 miEast (80°)18.4 mphScattered Clouds
3:00 PM86.0 °F71.6 °F62 %29.86 in6.2 miEast (80°)18.4 mphPartly Cloudy
4:00 PM86.0 °F71.6 °F62 %29.86 in6.2 miEast (90°)17.3 mphPartly Cloudy
5:00 PM84.2 °F69.8 °F62 %29.83 in6.2 miEast (80°)18.4 mphPartly Cloudy
6:00 PM82.4 °F71.6 °F70 %29.83 in6.2 miENE (70°)17.3 mphPartly Cloudy
6:00 PM82.0 °F71.0 °F61 %29.85 in12.0 miENE (70°)17.3 mphScattered Clouds
7:00 PM80.6 °F69.8 °F70 %29.86 in6.2 miENE (70°)15.0 mphPartly Cloudy
8:00 PM80.6 °F69.8 °F70 %29.86 in6.2 miENE (70°)16.1 mphScattered Clouds
9:00 PM80.0 °F71.0 °F66 %29.90 in12.0 miENE (70°)12.7 mphPartly Cloudy
9:00 PM80.6 °F71.6 °F74 %29.89 in6.2 miENE (70°)12.7 mphScattered Clouds
10:00 PM80.6 °F71.6 °F74 %29.89 in6.2 miENE (60°)11.5 mphScattered Clouds
11:00 PM80.6 °F71.6 °F74 %29.92 in6.2 miENE (60°)11.5 mphScattered Clouds
Hourly data recorded from SBSV, located miles away from Salvador, Bahia







STORIES FROM OUR PARTNERS